FW2439 Weather Reports


time (UTC)temp
F
wind
direction
speed
knots
gust
knots
rain 1hr
in
rain 24hr
in
rain mn
in
humidity
%
barometer
mb
20260504021542 55 216 0.0 0.0 0.00 0.00 0.00 75 1016.6
20260504020043 55 216 0.0 0.0 0.00 0.00 0.00 73 1016.5
20260504014544 56 216 0.0 0.0 0.00 0.00 0.00 71 1016.3
20260504013041 58 216 0.0 0.0 0.00 0.00 0.00 68 1016.1
20260504011546 59 216 0.0 0.0 0.00 0.00 0.00 64 1016.1
20260504010045 61 216 0.0 0.0 0.00 0.00 0.00 61 1016.3
20260504004540 63 216 0.0 0.0 0.00 0.00 0.00 55 1016.1
20260504003045 65 216 0.0 0.0 0.00 0.00 0.00 52 1016.2
20260504001552 67 216 0.0 0.9 0.00 0.00 0.00 48 1016.2
20260504000037 68 216 0.0 3.5 0.00 0.00 0.00 46 1016.1
20260503234536 69 222 0.0 3.5 0.00 0.00 0.00 45 1016.3
20260503233035 70 224 0.0 4.3 0.00 0.00 0.00 44 1016.6
20260503231545 70 173 2.6 9.6 0.00 0.00 0.00 42 1016.4
20260503230033 72 215 0.0 7.0 0.00 0.00 0.00 40 1016.4
20260503224531 73 249 1.7 7.0 0.00 0.00 0.00 40 1016.9
20260503223029 73 194 1.7 8.7 0.00 0.00 0.00 39 1016.9
20260503221527 73 165 3.5 9.6 0.00 0.00 0.00 40 1017.1
20260503220034 73 209 0.9 7.0 0.00 0.00 0.00 40 1017.1
20260503214522 73 188 2.6 7.0 0.00 0.00 0.00 40 1017.4
20260503213022 74 205 0.9 5.2 0.00 0.00 0.00 38 1017.8
20260503211522 73 205 0.9 8.7 0.00 0.00 0.00 42 1018.1
20260503210017 72 239 0.9 4.3 0.00 0.00 0.00 39 1018.3
20260503204510 73 211 2.6 7.0 0.00 0.00 0.00 39 1018.6
20260503203014 72 286 1.7 7.0 0.00 0.00 0.00 37 1018.8
20260503201510 72 209 2.6 6.1 0.00 0.00 0.00 40 1019.0
20260503200006 72 217 1.7 5.2 0.00 0.00 0.00 40 1019.1
20260503194506 72 187 1.7 7.0 0.00 0.00 0.00 40 1019.3
20260503193059 71 208 1.7 6.1 0.00 0.00 0.00 38 1019.7
20260503191605 71 238 2.6 6.1 0.00 0.00 0.00 42 1020.0
20260503190058 70 209 3.5 11.3 0.00 0.00 0.00 40 1020.4
20260503184614 70 176 3.5 8.7 0.00 0.00 0.00 40 1020.7
20260503183049 69 278 0.0 8.7 0.00 0.00 0.00 43 1020.9
20260503181550 68 218 2.6 10.4 0.00 0.00 0.00 43 1021.0
20260503180046 68 248 0.9 5.2 0.00 0.00 0.00 42 1021.0
20260503174600 67 273 3.5 8.7 0.00 0.00 0.00 48 1021.4
20260503173043 67 219 0.0 7.8 0.00 0.00 0.00 44 1021.7
20260503171542 67 200 0.0 4.3 0.00 0.00 0.00 45 1022.0
20260503081538 40 302 0.0 0.0 0.00 0.00 0.00 94 1021.4
20260503071530 41 302 0.0 0.0 0.00 0.00 0.00 93 1021.2
20260503054519 43 302 0.0 0.0 0.00 0.00 0.00 90 1021.3
20260503053006 44 302 0.0 0.0 0.00 0.00 0.00 89 1021.4
20260503051503 44 302 0.0 0.0 0.00 0.00 0.00 88 1021.1
20260503050003 45 302 0.0 0.0 0.00 0.00 0.00 87 1021.0
20260503044605 46 302 0.0 0.0 0.00 0.00 0.00 87 1021.1
20260503043100 46 302 0.0 0.0 0.00 0.00 0.00 86 1021.0
20260503041557 47 302 0.0 0.0 0.00 0.00 0.00 83 1020.8
20260503040056 48 302 0.0 0.0 0.00 0.00 0.00 82 1020.6
20260503034557 49 302 0.0 0.0 0.00 0.00 0.00 80 1020.7
20260503033059 50 302 0.0 0.0 0.00 0.00 0.00 79 1020.7
20260503031554 51 302 0.0 0.0 0.00 0.00 0.00 76 1020.7
20260503030053 51 302 0.0 0.0 0.00 0.00 0.00 75 1020.6
20260503024553 52 302 0.0 0.9 0.00 0.00 0.00 73 1020.6
20260503023051 54 302 0.0 0.9 0.00 0.00 0.00 70 1020.5